DW9064 Weather Reports


Display with metric or nautical units.
time (UTC)temp
F
wind
direction
speed
MPH
gust
MPH
rain 1hr
in
rain 24hr
in
rain mn
in
humidity
%
barometer
mb
20260508151208 56 69 3.0 7.0 0.00 0.00 0.00 63 1029.6
20260508150308 54 85 2.0 4.0 0.00 0.00 0.00 67 1029.6
20260508144508 53 89 3.0 6.0 0.00 0.00 0.00 68 1029.7
20260508143607 53 97 1.0 7.0 0.00 0.00 0.00 72 1029.7
20260508142708 51 101 2.0 5.0 0.00 0.00 0.00 74 1029.7
20260508141807 51 97 2.0 5.0 0.00 0.00 0.00 76 1029.7
20260508140014 49 64 0.0 3.0 0.00 0.00 0.00 82 1029.7
20260508134207 45 344 1.0 4.0 0.00 0.00 0.00 86 1029.8
20260508133308 44 327 2.0 5.0 0.00 0.00 0.00 87 1029.7
20260508132407 43 344 3.0 6.0 0.00 0.00 0.00 86 1029.6
20260508131507 43 346 3.0 6.0 0.00 0.00 0.00 87 1029.6
20260508130607 43 339 4.0 6.0 0.00 0.00 0.00 87 1029.4
20260508125707 43 340 4.0 6.0 0.00 0.00 0.00 86 1029.4
20260508124807 42 328 4.0 6.0 0.00 0.00 0.00 86 1029.3
20260508123907 42 345 4.0 6.0 0.00 0.00 0.00 85 1029.4
20260508123014 43 353 3.0 6.0 0.00 0.00 0.00 86 1029.4
20260508122107 42 354 3.0 6.0 0.00 0.00 0.00 86 1029.3
20260508121207 43 338 4.0 6.0 0.00 0.00 0.00 85 1029.3
20260508120307 43 340 4.0 6.0 0.00 0.00 0.00 85 1029.4
20260508115407 43 337 4.0 6.0 0.00 0.00 0.00 86 1029.4
20260508113607 43 354 4.0 6.0 0.00 0.00 0.00 86 1029.2
20260508112707 43 333 4.0 6.0 0.00 0.00 0.00 86 1029.2
20260508111807 43 330 4.0 7.0 0.00 0.00 0.00 87 1029.1
20260508110907 43 323 4.0 6.0 0.00 0.00 0.00 86 1029.1
20260508110013 44 324 4.0 7.0 0.00 0.00 0.00 86 1029.1
20260508104207 44 319 5.0 7.0 0.00 0.00 0.00 85 1029.0
20260508103307 44 326 4.0 8.0 0.00 0.00 0.00 84 1029.0
20260508101507 46 331 5.0 8.0 0.00 0.00 0.00 82 1028.8
20260508100607 46 329 4.0 8.0 0.00 0.00 0.00 83 1028.7
20260508095707 46 323 4.0 8.0 0.00 0.00 0.00 84 1028.7
20260508093907 46 322 5.0 8.0 0.00 0.00 0.00 84 1028.5
20260508093007 46 338 5.0 8.0 0.00 0.00 0.00 83 1028.5
20260508092107 46 340 3.0 8.0 0.00 0.00 0.00 83 1028.6
20260508091207 47 328 5.0 8.0 0.00 0.00 0.00 83 1028.6
20260508090307 47 324 5.0 8.0 0.00 0.00 0.00 83 1028.6
20260508085407 48 325 4.0 8.0 0.00 0.00 0.00 83 1028.6
20260508084507 48 340 5.0 9.0 0.00 0.00 0.00 82 1028.5
20260508083607 48 325 5.0 7.0 0.00 0.00 0.00 81 1028.4
20260508082707 49 323 5.0 8.0 0.00 0.00 0.00 81 1028.5
20260508081807 49 325 4.0 8.0 0.00 0.00 0.00 83 1028.4
20260508080907 49 320 5.0 8.0 0.00 0.00 0.00 82 1028.3
20260508080007 49 321 5.0 8.0 0.00 0.00 0.00 82 1028.3
20260508075107 49 326 5.0 8.0 0.00 0.00 0.00 82 1028.3
20260508074208 49 324 5.0 8.0 0.00 0.00 0.00 81 1028.1
20260508072407 50 331 6.0 8.0 0.00 0.00 0.00 82 1028.0
20260508071506 50 316 6.0 8.0 0.00 0.00 0.00 82 1027.8
20260508070606 50 314 6.0 8.0 0.00 0.00 0.00 81 1027.7
20260508065706 51 323 6.0 8.0 0.00 0.00 0.00 79 1027.6
20260508064807 51 325 6.0 9.0 0.00 0.00 0.00 79 1027.4
20260508063906 51 314 6.0 9.0 0.00 0.00 0.00 79 1027.3
20260508063006 52 315 7.0 8.0 0.00 0.00 0.00 79 1027.2
20260508062106 52 319 5.0 9.0 0.00 0.00 0.00 78 1027.2
20260508060306 52 317 7.0 8.0 0.00 0.00 0.00 78 1027.1
20260508055406 53 314 7.0 9.0 0.00 0.00 0.00 77 1026.9
20260508054506 53 322 8.0 9.0 0.00 0.00 0.00 77 1026.8
20260508053607 53 314 6.0 8.0 0.00 0.00 0.00 76 1026.8
20260508052707 54 314 6.0 10.0 0.00 0.00 0.00 73 1026.5
20260508051806 55 314 8.0 10.0 0.00 0.00 0.00 73 1026.4
20260508050907 55 314 8.0 10.0 0.00 0.00 0.00 74 1026.5
20260508050006 55 322 8.0 8.0 0.00 0.00 0.00 73 1026.3
20260508044206 56 316 8.0 11.0 0.00 0.00 0.00 73 1026.3
20260508043306 56 319 8.0 11.0 0.00 0.00 0.00 73 1026.0
20260508041506 57 314 8.0 10.0 0.00 0.00 0.00 71 1025.9
20260508040606 57 314 7.0 9.0 0.00 0.00 0.00 69 1026.0
20260508035706 58 335 6.0 9.0 0.00 0.00 0.00 66 1025.9
20260508034806 58 314 7.0 11.0 0.00 0.00 0.00 68 1025.5
20260508033906 58 316 7.0 9.0 0.00 0.00 0.00 67 1025.4
20260508033006 60 317 6.0 11.0 0.00 0.00 0.00 65 1025.3
20260508032106 60 319 8.0 10.0 0.00 0.00 0.00 63 1025.2
20260508031206 62 301 6.0 9.0 0.00 0.00 0.00 61 1025.4
20260508030306 63 305 6.0 12.0 0.00 0.00 0.00 56 1025.1
20260508025406 63 289 5.0 12.0 0.00 0.00 0.00 55 1025.1
20260508024506 64 309 4.0 11.0 0.00 0.00 0.00 56 1025.0
20260508023606 66 300 5.0 11.0 0.00 0.00 0.00 51 1025.0
20260508021806 66 304 6.0 12.0 0.00 0.00 0.00 47 1024.9
20260508020906 66 295 5.0 12.0 0.00 0.00 0.00 44 1025.0
20260508020006 65 308 4.0 8.0 0.00 0.00 0.00 50 1024.9
20260508015106 68 314 4.0 8.0 0.00 0.00 0.00 44 1024.9
20260508014206 69 313 6.0 10.0 0.00 0.00 0.00 39 1024.9
20260508013306 70 322 4.0 8.0 0.00 0.00 0.00 37 1025.0
20260508012406 73 273 4.0 10.0 0.00 0.00 0.00 30 1024.9
20260508011506 75 244 4.0 11.0 0.00 0.00 0.00 23 1025.0
20260508010606 77 220 5.0 13.0 0.00 0.00 0.00 17 1025.1
20260508005706 78 231 4.0 13.0 0.00 0.00 0.00 16 1025.0
20260508003006 80 196 7.0 15.0 0.00 0.00 0.00 10 1025.1
20260508002106 81 208 5.0 14.0 0.00 0.00 0.00 10 1025.2
20260508001206 81 217 7.0 16.0 0.00 0.00 0.00 10 1025.1
20260507235406 81 199 8.0 15.0 0.00 0.00 0.00 10 1025.0
20260507234506 81 211 7.0 13.0 0.00 0.00 0.00 10 1025.2
20260507233606 81 175 5.0 13.0 0.00 0.00 0.00 10 1025.1
20260507231806 82 197 7.0 17.0 0.00 0.00 0.00 10 1025.1
20260507230906 82 202 10.0 15.0 0.00 0.00 0.00 10 1025.2
20260507230006 82 182 5.0 15.0 0.00 0.00 0.00 10 1025.4
20260507225106 81 190 5.0 15.0 0.00 0.00 0.00 10 1025.4
20260507223306 82 186 10.0 15.0 0.00 0.00 0.00 10 1025.6
20260507222405 82 189 8.0 13.0 0.00 0.00 0.00 10 1025.7
20260507220607 82 184 9.0 24.0 0.00 0.00 0.00 10 1025.8
20260507215705 82 207 15.0 24.0 0.00 0.00 0.00 10 1025.8
20260507214805 83 181 4.0 17.0 0.00 0.00 0.00 10 1025.9
20260507213906 83 167 9.0 18.0 0.00 0.00 0.00 10 1026.0
20260507213006 82 175 4.0 18.0 0.00 0.00 0.00 10 1026.1
20260507212105 82 193 6.0 14.0 0.00 0.00 0.00 10 1026.2
20260507204505 81 186 6.0 23.0 0.00 0.00 0.00 10 1026.5
20260507203605 80 195 14.0 27.0 0.00 0.00 0.00 10 1026.5
20260507202705 80 185 14.0 27.0 0.00 0.00 0.00 10 1026.6
20260507201805 79 186 11.0 17.0 0.00 0.00 0.00 10 1026.7
20260507200905 79 184 5.0 16.0 0.00 0.00 0.00 13 1027.0
20260507200005 78 162 3.0 12.0 0.00 0.00 0.00 16 1027.1
20260507193305 77 215 3.0 11.0 0.00 0.00 0.00 22 1027.5
20260507191505 76 195 5.0 11.0 0.00 0.00 0.00 22 1027.7
20260507190605 76 192 8.0 11.0 0.00 0.00 0.00 24 1027.7
20260507185705 75 188 7.0 12.0 0.00 0.00 0.00 23 1027.9
20260507184805 74 190 6.0 13.0 0.00 0.00 0.00 25 1028.0
20260507183905 73 174 6.0 12.0 0.00 0.00 0.00 28 1028.0
20260507182105 72 176 8.0 11.0 0.00 0.00 0.00 32 1028.2
20260507181205 71 179 2.0 10.0 0.00 0.00 0.00 33 1028.4
20260507180305 71 170 4.0 9.0 0.00 0.00 0.00 39 1028.6
20260507175405 70 166 3.0 5.0 0.00 0.00 0.00 41 1028.5
20260507174505 70 166 2.0 6.0 0.00 0.00 0.00 38 1028.6
20260507172705 68 127 2.0 8.0 0.00 0.00 0.00 46 1028.6
20260507171805 67 129 2.0 8.0 0.00 0.00 0.00 47 1028.6
20260507170905 68 89 2.0 7.0 0.00 0.00 0.00 46 1028.9
20260507170005 67 119 1.0 7.0 0.00 0.00 0.00 49 1029.1
20260507165105 65 129 2.0 8.0 0.00 0.00 0.00 52 1029.1
20260507164205 65 107 1.0 6.0 0.00 0.00 0.00 53 1029.4
20260507163305 64 124 4.0 8.0 0.00 0.00 0.00 52 1029.4
20260507161505 64 106 1.0 7.0 0.00 0.00 0.00 57 1029.8
20260507160605 62 80 2.0 8.0 0.00 0.00 0.00 58 1029.7
20260507155705 62 336 3.0 7.0 0.00 0.00 0.00 59 1029.9
20260507153905 60 75 1.0 7.0 0.00 0.00 0.00 63 1029.9
20260507152105 58 86 3.0 6.0 0.00 0.00 0.00 68 1029.9